STARLINK-11282, 60992

Orbit data source: Space-Track

STARLINK-11282, 60992 is a payload satellite owned by SpaceX/Seattle (US) in LEO that was launched on Thu, 05 Sep 2024 UTC via an FALCON 9 launch vehicle from the Air Force Eastern Test Range (AFETR). Payload-class satellites include a variety of spacecraft equipped with specific instruments for various scientific and technological missions. These include communications satellites like Starlink; space stations such as the ISS; scientific satellites like the Hubble; Earth observation satellites from companies like Planet Labs, Umbra, and HawkEye 360; GPS; miniature CubeSats for education and research; and military/defense satellites.

Loading next visibility...
Identifier
60992, 2024-158C
Orbit
LEO
Last TLE update
11 hours ago
Origin
Manufacturer
SpaceX/Seattle
Mission
Operational Commercial Communications
Bus & Motor
STARLINK V2M, Unknown motor
Mass
730 kg wet, ~700 kg dry
Launch date (UTC)
2024-09-05 (10 months ago)
Launch vehicle
FALCON 9
Launch site
Air Force Eastern Test Range (AFETR)
Object type
Payload
Rocket body
Debris
Shape & HBR
Box + 2 Pan, 29 m
Radar Cross Section
36.964 m², Large (>1 m²)

Expand to show TLE details & history

TLE from 11 hours ago
0 STARLINK-11282
1 60992U 24158C   25189.88995025  .00000625  00000-0  10011-4 0  9997
2 60992  53.1597  43.0768 0000891  84.9941 275.1179 15.69711553 49300
Epoch: 2025-07-08T21:21Z
TLE epoch observation values (Epoch: 2025-07-08T21:21:31.701Z)
Latitude
Longitude
155.61626°
Altitude
360.584 km
Speed
7.694 km/s
True Right ascension
02h 52m 18s
True Declination
0° 00' 00"
Sunlit
Object was in daylight at epoch
Visualization orbit readout
Latitude
-23.25565°
Longitude
134.77154°
Altitude
366.64 km
Speed
7.689 km/s
Apparent Right ascension
04h 15m 50s
Apparent Declination
-42° 45' 13"
Sunlit
Object is in daylight
Visualization observer readout
Local Sidereal Time
20:05:24
Azimuth
113.329° SE
Elevation
-47.654°
Doppler factor
1
Orbital elements
Apogee altitude
360.583 km
Perigee altitude
359.383 km
Semi-major axis
6,738.12 km
Eccentricity
0.00009
Inclination
53.1597°
RAAN
43.0768°
Arg. of periapsis
84.9941°
True anomaly
Unknown
Mean anomaly
275.1179°
Eccentric anomaly
Unknown
Mean motion
3.92405 °/min
Orbital period
91.74 mins
BSTAR
0.000010011
Loading maneuver chart data...
Loading SW <> Apogee altitude chart data...
Loading historical data...
Loading historical data...
Loading historical data...
Loading historical data...
Loading historical data...
Loading historical data...
Loading historical data...

STARLINK-11282 Visibility forecast

Observer location: undefined°, undefined°

Span
Click to sort rows by Start time (UTC) header in descending order
Start Az.
Max El. time (UTC)
Max El. Az.
Max El.
End time (UTC)
End Az.
4 mins2025-07-09 17:26:49.430Z269.349° W2025-07-09 17:27:49.430Z309.95° NW33.444°2025-07-09 17:30:49.430Z37.859° NE
4 mins2025-07-09 23:50:49.430Z302.925° NW2025-07-09 23:52:49.430Z206.326° SW43.028°2025-07-09 23:54:49.430Z140.394° SSE
|